• In Slovakia
  • List of Countries
  • For 7 days
  • Water Temperature
  • Satellite Maps
  • Weather Map
  • Weather Widgets
  • user-avatar
    Login

    Hourly Weather Zhitnovo

    Today, 23 September, Sunday

    Time Temperature Precipitation Wind Pressure Humidity
    00:00 +11°C° 0.4 mm 3 mps 735 mmHg 90%
    01:00 +11°C° 0.4 mm 4 mps 735 mmHg 90%
    02:00 +10°C° 0 mm 4 mps 735 mmHg 90%
    03:00 +8°C° 1.1 mm 4 mps 735 mmHg 91%
    04:00 +8°C° 1.1 mm 4 mps 735 mmHg 92%
    05:00 +7°C° 1.1 mm 4 mps 735 mmHg 93%
    06:00 +8°C° 1.1 mm 4 mps 735 mmHg 92%
    07:00 +8°C° 1.1 mm 4 mps 735 mmHg 91%
    08:00 +8°C° 1.1 mm 4 mps 735 mmHg 90%
    09:00 +10°C° 0.1 mm 4 mps 736 mmHg 86%
    10:00 +11°C° 0.1 mm 4 mps 736 mmHg 81%
    11:00 +12°C° 0.1 mm 4 mps 736 mmHg 77%
    12:00 +12°C° 0 mm 4 mps 736 mmHg 71%
    13:00 +13°C° 0 mm 4 mps 736 mmHg 66%
    14:00 +14°C° 0 mm 4 mps 736 mmHg 61%
    15:00 +13°C° 0.1 mm 4 mps 736 mmHg 65%
    16:00 +12°C° 0.1 mm 3 mps 736 mmHg 70%
    17:00 +11°C° 0.1 mm 3 mps 736 mmHg 74%
    18:00 +10°C° 0 mm 3 mps 736 mmHg 77%
    19:00 +9°C° 0 mm 3 mps 736 mmHg 81%
    20:00 +8°C° 0 mm 3 mps 736 mmHg 85%
    21:00 +8°C° 0 mm 3 mps 736 mmHg 86%
    22:00 +8°C° 0 mm 3 mps 736 mmHg 88%
    23:00 +7°C° 0 mm 3 mps 736 mmHg 90%

    Tomorrow, 24 September, Monday

    Time Temperature Precipitation Wind Pressure Humidity
    00:00 +7°C° 0 mm 2 mps 736 mmHg 92%
    01:00 +7°C° 0 mm 2 mps 736 mmHg 93%
    02:00 +6°C° 0 mm 2 mps 736 mmHg 94%
    03:00 +6°C° 0 mm 2 mps 736 mmHg 94%
    04:00 +6°C° 0 mm 2 mps 736 mmHg 95%
    05:00 +6°C° 0 mm 2 mps 736 mmHg 95%
    06:00 +7°C° 0.3 mm 3 mps 736 mmHg 93%
    07:00 +7°C° 0.3 mm 3 mps 736 mmHg 92%
    08:00 +8°C° 0.3 mm 3 mps 736 mmHg 90%
    09:00 +7°C° 0.6 mm 4 mps 735 mmHg 89%
    10:00 +8°C° 0.6 mm 4 mps 735 mmHg 88%
    11:00 +8°C° 0.6 mm 4 mps 734 mmHg 87%
    12:00 +8°C° 0.8 mm 4 mps 734 mmHg 87%
    13:00 +8°C° 0.8 mm 4 mps 733 mmHg 87%
    14:00 +8°C° 0.8 mm 4 mps 733 mmHg 87%
    15:00 +8°C° 1.7 mm 4 mps 731 mmHg 89%
    16:00 +7°C° 1.7 mm 5 mps 730 mmHg 91%
    17:00 +7°C° 1.7 mm 5 mps 729 mmHg 93%
    18:00 +6°C° 3 mm 5 mps 728 mmHg 94%
    19:00 +6°C° 3 mm 5 mps 727 mmHg 94%
    20:00 +6°C° 3 mm 5 mps 725 mmHg 95%
    21:00 +6°C° 3.4 mm 5 mps 724 mmHg 95%
    22:00 +6°C° 3.4 mm 5 mps 723 mmHg 95%
    23:00 +7°C° 3.4 mm 5 mps 722 mmHg 95%

    Day after tomorrow, 25 September, Tuesday

    Time Temperature Precipitation Wind Pressure Humidity
    00:00 +5°C° 2.2 mm 6 mps 722 mmHg 95%
    01:00 +5°C° 2.2 mm 6 mps 722 mmHg 94%
    02:00 +5°C° 2.2 mm 7 mps 722 mmHg 93%
    03:00 +5°C° 1.1 mm 7 mps 722 mmHg 92%
    04:00 +5°C° 1.1 mm 8 mps 723 mmHg 91%
    05:00 +5°C° 1.1 mm 8 mps 723 mmHg 90%
    06:00 +5°C° 0.8 mm 8 mps 724 mmHg 89%
    07:00 +5°C° 0.8 mm 9 mps 725 mmHg 89%
    08:00 +5°C° 0.8 mm 9 mps 726 mmHg 88%
    09:00 +5°C° 0.7 mm 9 mps 727 mmHg 87%
    10:00 +3°C° 0.7 mm 9 mps 728 mmHg 87%
    11:00 +3°C° 0.7 mm 9 mps 729 mmHg 86%
    12:00 +4°C° 0.7 mm 8 mps 729 mmHg 85%
    13:00 +4°C° 0.7 mm 8 mps 730 mmHg 84%
    14:00 +4°C° 0.7 mm 8 mps 731 mmHg 83%
    15:00 +4°C° 0.4 mm 8 mps 732 mmHg 83%
    16:00 +4°C° 0.4 mm 8 mps 733 mmHg 83%
    17:00 +4°C° 0.4 mm 7 mps 734 mmHg 82%
    18:00 +4°C° 0.2 mm 7 mps 734 mmHg 83%
    19:00 +4°C° 0.2 mm 7 mps 735 mmHg 83%
    20:00 +4°C° 0.2 mm 7 mps 736 mmHg 84%
    21:00 +3°C° 0.1 mm 6 mps 737 mmHg 82%
    22:00 +3°C° 0.1 mm 6 mps 737 mmHg 81%
    23:00 +2°C° 0.1 mm 6 mps 738 mmHg 80%

    26 September, Wednesday

    Time Temperature Precipitation Wind Pressure Humidity
    00:00 +1°C° 0 mm 6 mps 739 mmHg 80%
    01:00 +1°C° 0 mm 6 mps 740 mmHg 79%
    02:00 0°C° 0 mm 5 mps 740 mmHg 79%
    03:00 0°C° 0 mm 5 mps 741 mmHg 79%
    04:00 0°C° 0 mm 5 mps 742 mmHg 79%
    05:00 -1°C° 0 mm 5 mps 742 mmHg 79%
    06:00 0°C° 0 mm 5 mps 743 mmHg 76%
    07:00 +1°C° 0 mm 5 mps 744 mmHg 74%
    08:00 +2°C° 0 mm 5 mps 744 mmHg 72%
    09:00 +3°C° 0 mm 5 mps 744 mmHg 69%
    10:00 +6°C° 0 mm 5 mps 745 mmHg 66%
    11:00 +7°C° 0 mm 5 mps 745 mmHg 63%
    12:00 +8°C° 0 mm 4 mps 745 mmHg 64%
    13:00 +8°C° 0 mm 4 mps 744 mmHg 64%
    14:00 +8°C° 0 mm 4 mps 744 mmHg 65%
    15:00 +8°C° 0 mm 4 mps 744 mmHg 68%
    16:00 +8°C° 0 mm 3 mps 744 mmHg 71%
    17:00 +7°C° 0 mm 3 mps 744 mmHg 74%
    18:00 +6°C° 0 mm 4 mps 743 mmHg 73%
    19:00 +6°C° 0 mm 4 mps 743 mmHg 73%
    20:00 +5°C° 0 mm 5 mps 742 mmHg 72%
    21:00 +5°C° 0.3 mm 5 mps 741 mmHg 77%
    22:00 +4°C° 0.3 mm 6 mps 741 mmHg 81%
    23:00 +4°C° 0.3 mm 6 mps 740 mmHg 86%

    27 September, Thursday

    Time Temperature Precipitation Wind Pressure Humidity
    00:00 +4°C° 0.8 mm 7 mps 739 mmHg 87%
    01:00 +4°C° 0.8 mm 7 mps 738 mmHg 88%
    02:00 +5°C° 0.8 mm 7 mps 737 mmHg 89%
    03:00 +4°C° 1.1 mm 8 mps 736 mmHg 89%
    04:00 +4°C° 1.1 mm 8 mps 735 mmHg 89%
    05:00 +4°C° 1.1 mm 8 mps 734 mmHg 89%
    06:00 +4°C° 1.2 mm 8 mps 733 mmHg 89%
    07:00 +4°C° 1.2 mm 8 mps 732 mmHg 89%
    08:00 +5°C° 1.2 mm 8 mps 730 mmHg 89%
    09:00 +5°C° 0.7 mm 8 mps 730 mmHg 89%
    10:00 +6°C° 0.7 mm 8 mps 729 mmHg 89%
    11:00 +7°C° 0.7 mm 8 mps 728 mmHg 89%
    12:00 +7°C° 0.5 mm 8 mps 728 mmHg 88%
    13:00 +9°C° 0.5 mm 8 mps 728 mmHg 87%
    14:00 +10°C° 0.5 mm 8 mps 727 mmHg 86%
    15:00 +10°C° 0.5 mm 7 mps 728 mmHg 85%
    16:00 +9°C° 0.5 mm 7 mps 728 mmHg 83%
    17:00 +9°C° 0.5 mm 7 mps 728 mmHg 82%
    18:00 +8°C° 0 mm 7 mps 729 mmHg 81%
    19:00 +6°C° 0 mm 8 mps 729 mmHg 80%
    20:00 +5°C° 0 mm 8 mps 730 mmHg 79%
    21:00 +4°C° 0 mm 8 mps 731 mmHg 78%
    22:00 +4°C° 0 mm 8 mps 732 mmHg 78%
    23:00 +4°C° 0 mm 8 mps 732 mmHg 77%

    28 September, Friday

    Time Temperature Precipitation Wind Pressure Humidity
    00:00 +3°C° 0 mm 7 mps 733 mmHg 79%
    01:00 +3°C° 0 mm 7 mps 734 mmHg 80%
    02:00 +3°C° 0 mm 6 mps 734 mmHg 81%
    03:00 +2°C° 0 mm 6 mps 735 mmHg 82%
    04:00 +2°C° 0 mm 5 mps 735 mmHg 84%
    05:00 +2°C° 0 mm 5 mps 736 mmHg 85%
    06:00 +2°C° 0 mm 5 mps 736 mmHg 83%
    07:00 +3°C° 0 mm 5 mps 737 mmHg 81%
    08:00 +3°C° 0 mm 5 mps 737 mmHg 79%
    09:00 +5°C° 0 mm 4 mps 737 mmHg 76%
    10:00 +6°C° 0 mm 4 mps 738 mmHg 74%
    11:00 +6°C° 0 mm 4 mps 738 mmHg 72%
    12:00 +8°C° 0 mm 3 mps 738 mmHg 70%
    13:00 +8°C° 0 mm 3 mps 738 mmHg 69%
    14:00 +8°C° 0 mm 3 mps 738 mmHg 67%
    15:00 +8°C° 0 mm 2 mps 738 mmHg 71%
    16:00 +7°C° 0 mm 2 mps 738 mmHg 75%
    17:00 +6°C° 0 mm 2 mps 739 mmHg 79%
    18:00 +5°C° 0 mm 2 mps 739 mmHg 82%
    19:00 +4°C° 0 mm 2 mps 740 mmHg 86%
    20:00 +4°C° 0 mm 2 mps 741 mmHg 89%
    21:00 +3°C° 0 mm 2 mps 741 mmHg 90%
    22:00 +3°C° 0 mm 2 mps 741 mmHg 90%
    23:00 +2°C° 0 mm 2 mps 742 mmHg 91%
    Show more